Tucson, AZ

5:42 PM MST on September 21, 2019 (GMT -0700)
Tucson International

Weather History for KTUS - July, 2019

Change the Weather History Date:

Tuesday, July 16, 2019

  Actual Average Record
Temperature  
Mean Temperature 96 °F 87 °F  
Max Temperature 110 °F 100 °F 110 °F (2003)
Min Temperature 81 °F 75 °F 64 °F (1905)
Degree Days  
Heating Degree Days 0 0  
Month to date heating degree days 0 0  
Since 1 June heating degree days 0 0  
Since 1 July heating degree days 0 0  
Cooling Degree Days 31 22  
Month to date cooling degree days 408 364  
Year to date cooling degree days 1393 1460  
Since 1 June cooling degree days 1021 958  
Growing Degree Days 45 (Base 50)    
Moisture  
Dew Point 53 °F    
Average Humidity 25    
Maximum Humidity 45    
Minimum Humidity 10    
Precipitation  
Precipitation T in 0.08 in 1.90 in (1919)
Month to date precipitation 0.29 0.89  
Year to date precipitation 5.32 4.16  
Sea Level Pressure  
Sea Level Pressure 29.76 in    
Wind  
Wind Speed 7 mph (South)    
Max Wind Speed 21 mph    
Max Gust Speed 37 mph    
Visibility 10 miles    
Events Thunderstorm    
T = Trace of Precipitation, MM = Missing Value Source: NWS Daily Summary

Daily Weather History Graph

Daily Weather History Graph

Search for Another Location

Airport or City:

Astronomy

Jul. 16, 2019 Rise Set
Actual Time 5:28 AM MST 7:30 PM MST
Civil Twilight 5:00 AM MST 7:58 PM MST
Nautical Twilight 4:27 AM MST 8:31 PM MST
Astronomical Twilight 3:51 AM MST 9:07 PM MST
Moon 7:39 PM MST (7/16) 5:11 AM MST (7/16)
Length of Visible Light 14h 57m
Length of Day
14h 02m
Full, 100% of the Moon is Illuminated
Jul 16
Full
Jul 16
Full
Jul 24
Last Quarter
Jul 31
New
Aug 7
First Quarter

Hourly Weather History & Observations

Time (MST) Temp. Heat Index Dew Point Humidity Pressure Visibility Wind Dir Wind Speed Gust Speed Precip Events Conditions
12:53 AM 89.1 °F 87.1 °F 55.0 °F 31% 29.74 in 10.0 mi SE 6.9 mph - N/A   Clear
1:53 AM 86.0 °F 84.9 °F 57.0 °F 37% 29.73 in 10.0 mi SE 8.1 mph - N/A   Clear
2:53 AM 84.9 °F 84.2 °F 57.9 °F 40% 29.72 in 10.0 mi SSE 5.8 mph - N/A   Clear
3:53 AM 82.9 °F 82.6 °F 57.9 °F 42% 29.73 in 10.0 mi SE 6.9 mph - N/A   Clear
4:53 AM 82.9 °F 82.6 °F 57.9 °F 42% 29.74 in 10.0 mi SSE 6.9 mph - N/A   Clear
5:53 AM 81.0 °F 81.1 °F 57.9 °F 45% 29.76 in 10.0 mi SSE 6.9 mph - N/A   Clear
6:53 AM 82.0 °F 82.0 °F 57.9 °F 44% 29.78 in 10.0 mi SE 10.4 mph - N/A   Clear
7:53 AM 84.9 °F 84.2 °F 57.9 °F 40% 29.79 in 10.0 mi SSE 6.9 mph - N/A   Clear
8:53 AM 91.0 °F 90.0 °F 57.9 °F 33% 29.79 in 10.0 mi South 3.5 mph - N/A   Clear
9:53 AM 97.0 °F - 52.0 °F 22% 29.79 in 10.0 mi WNW 5.8 mph - N/A   Clear
10:26 AM 98.1 °F - 52.0 °F 21% 29.96 in 10.0 mi West 4.6 mph - N/A   Clear
10:53 AM 99.0 °F - 50.0 °F 19% 29.78 in 10.0 mi Variable 3.5 mph - N/A   Clear
11:53 AM 102.0 °F - 48.0 °F 16% 29.77 in 10.0 mi Calm Calm - N/A   Clear
12:53 PM 104.0 °F - 48.0 °F 15% 29.74 in 10.0 mi Calm Calm - N/A   Clear
1:53 PM 107.1 °F - 46.9 °F 13% 29.71 in 10.0 mi West 13.8 mph 19.6 mph N/A   Clear
2:53 PM 108.0 °F - 46.0 °F 13% 29.69 in 10.0 mi WSW 8.1 mph 19.6 mph N/A   Clear
3:53 PM 107.1 °F - 46.9 °F 13% 29.68 in 10.0 mi NW 10.4 mph 18.4 mph N/A   Clear
4:07 PM 105.1 °F - 46.9 °F 14% 29.86 in 10.0 mi SW 4.6 mph - N/A Thunderstorm Clear
4:22 PM 102.0 °F - 51.1 °F 18% 29.87 in 10.0 mi SSW 11.5 mph 27.6 mph N/A   Partly Cloudy
4:51 PM 100.4 °F - 51.8 °F 20% 29.86 in 10.0 mi Variable 4.6 mph 25.3 mph 0.00 in   Mostly Cloudy
4:53 PM 100.9 °F - 50.0 °F 18% 29.69 in 10.0 mi ESE 9.2 mph - 0.00 in   Mostly Cloudy
5:53 PM 100.9 °F - 50.0 °F 18% 29.68 in 10.0 mi NE 9.2 mph - N/A   Clear
6:33 PM 100.0 °F - 52.0 °F 20% 29.86 in 10.0 mi ENE 8.1 mph - N/A Thunderstorm Clear
6:48 PM 100.4 °F - 51.8 °F 20% 29.87 in 10.0 mi ENE 4.6 mph - N/A   Clear
6:53 PM 100.0 °F - 51.1 °F 19% 29.70 in 10.0 mi Variable 5.8 mph - N/A   Clear
7:53 PM 95.0 °F 93.4 °F 55.9 °F 27% 29.72 in 10.0 mi SW 5.8 mph - N/A   Clear
8:53 PM 96.1 °F 93.8 °F 54.0 °F 24% 29.73 in 10.0 mi WSW 6.9 mph - N/A   Clear
9:53 PM 95.0 °F 92.5 °F 53.1 °F 24% 29.75 in 10.0 mi WNW 9.2 mph - N/A   Clear
10:53 PM 93.0 °F 90.6 °F 53.1 °F 26% 29.76 in 10.0 mi West 4.6 mph - N/A   Clear
11:53 PM 86.0 °F 85.4 °F 59.0 °F 40% 29.77 in 10.0 mi SSW 8.1 mph - N/A   Clear